Location: Devargunta
(16.7631°N, 80.9077°E)
Time: 17:02:48
(UTC+00:00)

Cosmos 540 Rocket - Pass Details

Date: 03 December 2021
Orbit: 739 x 754 km, 74.1° (Epoch: 17 January)

Event Time Altitude Azimuth Distance (km) Brightness Sun altitude
Exits shadow 21:54:39 15° 85° (E) 1,926 6.1 -40.9°
Drops below altitude 10° 21:56:47 10° 109° (ESE) 2,265 6.6 -40.4°
Sets 22:00:03 0° 130° (SE) 3,190 7.5 -39.6°
